Time,TemperatureF,DewpointF,PressureIn,WindDirection,WindDirectionDegrees,WindSpeedMPH,WindSpeedGustMPH,Humidity,HourlyPrecipIn,Conditions,Clouds,dailyrainin,SoftwareType,DateUTC
2013-11-01 00:03:00,47.3,43.6,29.61,WSW,237,20.7,20.7,87,0.00,RA,,0.00,WeatherDisplay:10.37,2013-11-01 00:03:00,
2013-11-01 00:08:00,47.4,43.7,29.61,West,265,26.5,26.5,87,0.00,RA,,0.00,WeatherDisplay:10.37,2013-11-01 00:08:00,
2013-11-01 00:13:00,47.5,44.1,29.61,WSW,249,11.5,11.5,88,0.00,CLR,,0.00,WeatherDisplay:10.37,2013-11-01 00:13:00,
2013-11-01 00:18:00,47.8,43.8,29.61,SW,233,26.5,26.5,86,0.00,CLR,,0.00,WeatherDisplay:10.37,2013-11-01 00:18:00,
2013-11-01 00:23:00,47.9,43.9,29.61,WSW,245,16.1,16.1,86,0.00,CLR,,0.00,WeatherDisplay:10.37,2013-11-01 00:23:00,
2013-11-01 00:28:00,47.9,43.9,29.61,SW,218,19.6,19.6,86,0.00,CLR,,0.00,WeatherDisplay:10.37,2013-11-01 00:28:00,
2013-11-01 00:33:00,47.9,43.6,29.61,SSW,205,19.6,19.6,85,0.00,CLR,,0.00,WeatherDisplay:10.37,2013-11-01 00:33:00,
2013-11-01 00:38:00,48.0,43.7,29.60,SW,222,18.4,18.4,85,0.00,CLR,,0.00,WeatherDisplay:10.37,2013-11-01 00:38:00,
2013-11-01 00:43:00,48.0,43.7,29.61,WSW,252,19.6,19.6,85,0.00,CLR,,0.00,WeatherDisplay:10.37,2013-11-01 00:43:00,
2013-11-01 00:48:00,47.4,42.2,29.61,WNW,290,17.0,17.0,82,0.00,CLR,,0.00,WeatherDisplay:10.37,2013-11-01 00:48:00,
2013-11-01 00:53:00,46.3,41.1,29.60,WNW,297,11.5,11.5,82,0.00,CLR,,0.00,WeatherDisplay:10.37,2013-11-01 00:53:00,
2013-11-01 00:58:00,45.6,41.0,29.60,WNW,294,11.5,11.5,84,0.00,CLR,,0.00,WeatherDisplay:10.37,2013-11-01 00:58:00,
2013-11-01 01:03:00,45.8,42.4,29.60,SSW,206,12.0,12.0,88,0.00,CLR,,0.01,WeatherDisplay:10.37,2013-11-01 01:03:00,
2013-11-01 01:08:00,45.6,41.7,29.61,West,271,10.0,10.0,86,0.01,RA,,0.01,WeatherDisplay:10.37,2013-11-01 01:08:00,
2013-11-01 01:13:00,45.9,42.2,29.61,WSW,237,14.0,14.0,87,0.01,RA,,0.01,WeatherDisplay:10.37,2013-11-01 01:13:00,
2013-11-01 01:18:00,46.8,43.4,29.61,WSW,243,15.0,15.0,88,0.01,CLR,,0.02,WeatherDisplay:10.37,2013-11-01 01:18:00,
2013-11-01 01:23:00,47.3,43.3,29.61,SSW,209,16.1,16.1,86,0.02,RA,,0.02,WeatherDisplay:10.37,2013-11-01 01:23:00,
2013-11-01 01:28:00,47.6,43.3,29.61,WSW,237,18.4,18.4,85,0.02,RA,,0.02,WeatherDisplay:10.37,2013-11-01 01:28:00,
2013-11-01 01:33:00,47.7,43.7,29.61,WSW,243,13.8,13.8,86,0.02,CLR,,0.02,WeatherDisplay:10.37,2013-11-01 01:33:00,
2013-11-01 01:38:00,47.7,43.7,29.61,SW,233,10.4,10.4,86,0.02,CLR,,0.02,WeatherDisplay:10.37,2013-11-01 01:38:00,
2013-11-01 01:43:00,47.7,43.7,29.61,West,261,3.5,3.5,86,0.02,CLR,,0.02,WeatherDisplay:10.37,2013-11-01 01:43:00,
2013-11-01 01:48:00,47.7,43.4,29.61,SSW,192,11.5,11.5,85,0.02,CLR,,0.02,WeatherDisplay:10.37,2013-11-01 01:48:00,
2013-11-01 01:53:00,47.9,43.6,29.60,SSW,205,11.5,11.5,85,0.02,CLR,,0.02,WeatherDisplay:10.37,2013-11-01 01:53:00,
2013-11-01 01:58:00,47.9,43.3,29.61,SSW,198,15.0,15.0,84,0.02,CLR,,0.02,WeatherDisplay:10.37,2013-11-01 01:58:00,
2013-11-01 02:03:00,47.9,43.3,29.61,SW,226,15.0,15.0,84,0.02,CLR,,0.02,WeatherDisplay:10.37,2013-11-01 02:03:00,
2013-11-01 02:08:00,47.9,43.3,29.60,SSE,148,16.1,16.1,84,0.01,CLR,,0.02,WeatherDisplay:10.37,2013-11-01 02:08:00,
2013-11-01 02:13:00,47.9,43.3,29.60,SSW,194,17.3,17.3,84,0.01,CLR,,0.02,WeatherDisplay:10.37,2013-11-01 02:13:00,
2013-11-01 02:18:00,48.0,43.4,29.60,SW,232,13.0,13.0,84,0.01,CLR,,0.02,WeatherDisplay:10.37,2013-11-01 02:18:00,
2013-11-01 02:23:00,48.0,43.4,29.60,SW,234,16.1,16.1,84,0.00,CLR,,0.02,WeatherDisplay:10.37,2013-11-01 02:23:00,
2013-11-01 02:28:00,47.9,43.9,29.60,West,262,15.0,15.0,86,0.01,RA,,0.02,WeatherDisplay:10.37,2013-11-01 02:28:00,
2013-11-01 02:33:00,47.6,43.6,29.60,SW,226,16.1,16.1,86,0.01,RA,,0.02,WeatherDisplay:10.37,2013-11-01 02:33:00,
2013-11-01 02:38:00,47.8,43.5,29.60,WSW,240,26.5,26.5,85,0.01,,,0.02,WeatherDisplay:10.37,2013-11-01 02:38:00,
2013-11-01 02:43:00,47.9,43.6,29.60,WSW,246,22.0,22.0,85,0.01,CLR,,0.02,WeatherDisplay:10.37,2013-11-01 02:43:00,
2013-11-01 02:48:00,47.9,43.6,29.60,WSW,245,14.0,14.0,85,0.01,CLR,,0.02,WeatherDisplay:10.37,2013-11-01 02:48:00,
2013-11-01 02:53:00,48.1,43.5,29.60,SSW,211,23.0,23.0,84,0.01,CLR,,0.02,WeatherDisplay:10.37,2013-11-01 02:53:00,
2013-11-01 02:58:00,48.3,43.4,29.60,WSW,250,20.0,20.0,83,0.01,CLR,,0.02,WeatherDisplay:10.37,2013-11-01 02:58:00,
2013-11-01 03:03:00,48.3,43.4,29.60,SW,222,12.0,12.0,83,0.01,CLR,,0.02,WeatherDisplay:10.37,2013-11-01 03:03:00,
2013-11-01 03:08:00,48.3,43.4,29.60,WSW,237,16.1,16.1,83,0.01,CLR,,0.02,WeatherDisplay:10.37,2013-11-01 03:08:00,
2013-11-01 03:13:00,48.3,43.7,29.60,SW,219,19.6,19.6,84,0.01,CLR,,0.02,WeatherDisplay:10.37,2013-11-01 03:13:00,
2013-11-01 03:18:00,48.3,43.7,29.60,SSW,211,20.7,20.7,84,0.01,CLR,,0.02,WeatherDisplay:10.37,2013-11-01 03:18:00,
2013-11-01 03:23:00,48.4,43.5,29.60,SW,226,18.4,18.4,83,0.01,CLR,,0.02,WeatherDisplay:10.37,2013-11-01 03:23:00,
2013-11-01 03:28:00,48.5,43.3,29.60,WSW,240,18.4,18.4,82,0.00,CLR,,0.02,WeatherDisplay:10.37,2013-11-01 03:28:00,
2013-11-01 03:33:00,48.5,43.3,29.60,WSW,237,15.0,15.0,82,0.00,CLR,,0.02,WeatherDisplay:10.37,2013-11-01 03:33:00,
2013-11-01 03:38:00,48.5,43.3,29.60,SW,221,18.0,18.0,82,0.00,CLR,,0.02,WeatherDisplay:10.37,2013-11-01 03:38:00,
2013-11-01 03:43:00,48.6,43.4,29.60,SW,224,19.6,19.6,82,0.00,CLR,,0.02,WeatherDisplay:10.37,2013-11-01 03:43:00,
2013-11-01 03:48:00,48.7,43.5,29.59,SW,227,25.3,25.3,82,0.00,CLR,,0.02,WeatherDisplay:10.37,2013-11-01 03:48:00,
2013-11-01 03:53:00,48.6,43.0,29.60,WSW,247,20.7,20.7,81,0.00,CLR,,0.02,WeatherDisplay:10.37,2013-11-01 03:53:00,
2013-11-01 03:58:00,48.6,43.0,29.60,SSW,195,24.2,24.2,81,0.00,CLR,,0.02,WeatherDisplay:10.37,2013-11-01 03:58:00,
2013-11-01 04:01:00,48.6,43.4,29.59,SW,223,16.1,16.1,82,0.00,CLR,,0.02,WeatherDisplay:10.37,2013-11-01 04:01:00,
2013-11-01 04:06:00,48.6,43.0,29.60,WSW,240,18.4,18.4,81,0.00,CLR,,0.02,WeatherDisplay:10.37,2013-11-01 04:06:00,
2013-11-01 04:11:00,48.6,43.0,29.59,WSW,242,27.6,27.6,81,0.00,CLR,,0.02,WeatherDisplay:10.37,2013-11-01 04:11:00,
2013-11-01 04:16:00,48.7,43.1,29.60,SW,233,20.7,20.7,81,0.00,CLR,,0.02,WeatherDisplay:10.37,2013-11-01 04:16:00,
2013-11-01 04:21:00,48.8,42.9,29.59,SW,223,21.9,21.9,80,0.00,CLR,,0.02,WeatherDisplay:10.37,2013-11-01 04:21:00,
2013-11-01 04:26:00,48.8,42.9,29.60,SW,234,20.7,20.7,80,0.00,CLR,,0.02,WeatherDisplay:10.37,2013-11-01 04:26:00,
2013-11-01 04:31:00,48.8,42.9,29.59,SSW,205,26.5,26.5,80,0.00,CLR,,0.02,WeatherDisplay:10.37,2013-11-01 04:31:00,
2013-11-01 04:36:00,48.8,42.6,29.59,SW,233,26.5,26.5,79,0.00,CLR,,0.02,WeatherDisplay:10.37,2013-11-01 04:36:00,
2013-11-01 04:41:00,48.8,42.9,29.60,WSW,247,28.0,28.0,80,0.00,CLR,,0.02,WeatherDisplay:10.37,2013-11-01 04:41:00,
2013-11-01 04:46:00,48.8,42.9,29.59,SW,236,30.0,30.0,80,0.00,CLR,,0.02,WeatherDisplay:10.37,2013-11-01 04:46:00,
2013-11-01 04:51:00,48.8,42.9,29.59,SW,234,21.9,21.9,80,0.00,CLR,,0.02,WeatherDisplay:10.37,2013-11-01 04:51:00,
2013-11-01 04:56:00,48.9,43.3,29.59,West,268,25.3,25.3,81,0.00,CLR,,0.02,WeatherDisplay:10.37,2013-11-01 04:56:00,
2013-11-01 05:01:00,48.9,43.3,29.59,WSW,251,24.2,24.2,81,0.00,CLR,,0.02,WeatherDisplay:10.37,2013-11-01 05:01:00,
2013-11-01 05:06:00,48.9,43.0,29.59,SSW,205,27.6,27.6,80,0.00,CLR,,0.02,WeatherDisplay:10.37,2013-11-01 05:06:00,
2013-11-01 05:11:00,49.0,43.1,29.59,WSW,256,27.6,27.6,80,0.00,CLR,,0.02,WeatherDisplay:10.37,2013-11-01 05:11:00,
2013-11-01 05:16:00,49.0,43.1,29.59,WSW,247,28.8,28.8,80,0.00,CLR,,0.02,WeatherDisplay:10.37,2013-11-01 05:16:00,
2013-11-01 05:21:00,49.0,43.1,29.59,WSW,249,24.0,24.0,80,0.00,CLR,,0.02,WeatherDisplay:10.37,2013-11-01 05:21:00,
2013-11-01 05:26:00,48.9,43.3,29.59,West,269,32.2,32.2,81,0.00,CLR,,0.02,WeatherDisplay:10.37,2013-11-01 05:26:00,
2013-11-01 05:31:00,48.7,43.8,29.59,West,261,22.0,22.0,83,0.00,CLR,,0.02,WeatherDisplay:10.37,2013-11-01 05:31:00,
2013-11-01 05:36:00,48.5,43.3,29.59,WSW,238,26.5,26.5,82,0.00,CLR,,0.02,WeatherDisplay:10.37,2013-11-01 05:36:00,
2013-11-01 05:41:00,48.7,43.5,29.58,WSW,244,21.9,21.9,82,0.00,CLR,,0.02,WeatherDisplay:10.37,2013-11-01 05:41:00,
2013-11-01 05:45:00,48.7,43.5,29.59,SW,234,28.8,28.8,82,0.00,CLR,,0.02,WeatherDisplay:10.37,2013-11-01 05:45:00,
2013-11-01 05:50:00,48.5,43.6,29.59,WSW,240,24.2,24.2,83,0.00,CLR,,0.02,WeatherDisplay:10.37,2013-11-01 05:50:00,
2013-11-01 05:55:00,48.3,43.4,29.58,WSW,258,25.3,25.3,83,0.00,CLR,,0.02,WeatherDisplay:10.37,2013-11-01 05:55:00,
2013-11-01 06:00:00,48.4,43.5,29.58,WSW,238,26.5,26.5,83,0.00,CLR,,0.02,WeatherDisplay:10.37,2013-11-01 06:00:00,
2013-11-01 06:05:00,48.6,43.4,29.58,WSW,256,32.0,32.0,82,0.00,CLR,,0.02,WeatherDisplay:10.37,2013-11-01 06:05:00,
2013-11-01 06:10:00,48.8,43.5,29.58,WSW,247,26.5,26.5,82,0.00,CLR,,0.02,WeatherDisplay:10.37,2013-11-01 06:10:00,
2013-11-01 06:15:00,48.8,43.5,29.58,WSW,244,28.8,28.8,82,0.00,CLR,,0.02,WeatherDisplay:10.37,2013-11-01 06:15:00,
2013-11-01 06:20:00,48.9,43.3,29.58,WSW,245,26.5,26.5,81,0.00,CLR,,0.02,WeatherDisplay:10.37,2013-11-01 06:20:00,
2013-11-01 06:25:00,48.8,43.2,29.58,SSW,201,28.8,28.8,81,0.00,CLR,,0.02,WeatherDisplay:10.37,2013-11-01 06:25:00,
2013-11-01 06:30:00,48.7,43.1,29.58,WSW,237,32.2,32.2,81,0.00,CLR,,0.02,WeatherDisplay:10.37,2013-11-01 06:30:00,
2013-11-01 06:35:00,48.6,43.7,29.59,WSW,249,20.7,20.7,83,0.00,CLR,,0.02,WeatherDisplay:10.37,2013-11-01 06:35:00,
2013-11-01 06:40:00,48.6,43.7,29.58,WSW,246,27.6,27.6,83,0.00,CLR,,0.02,WeatherDisplay:10.37,2013-11-01 06:40:00,
2013-11-01 06:45:00,48.4,43.5,29.58,WSW,256,26.5,26.5,83,0.00,CLR,,0.02,WeatherDisplay:10.37,2013-11-01 06:45:00,
2013-11-01 06:50:00,48.2,43.6,29.58,West,269,24.2,24.2,84,0.00,CLR,,0.02,WeatherDisplay:10.37,2013-11-01 06:50:00,
2013-11-01 06:55:00,48.2,43.6,29.58,WSW,244,24.2,24.2,84,0.00,CLR,,0.02,WeatherDisplay:10.37,2013-11-01 06:55:00,
2013-11-01 07:00:00,48.3,43.7,29.58,WSW,251,24.2,24.2,84,0.00,CLR,,0.02,WeatherDisplay:10.37,2013-11-01 07:00:00,
2013-11-01 07:05:00,48.6,43.7,29.59,West,260,25.3,25.3,83,0.00,CLR,,0.02,WeatherDisplay:10.37,2013-11-01 07:05:00,
2013-11-01 07:10:00,48.7,43.5,29.58,SW,221,27.6,27.6,82,0.00,CLR,,0.02,WeatherDisplay:10.37,2013-11-01 07:10:00,
2013-11-01 07:15:00,48.7,43.5,29.58,SW,235,26.5,26.5,82,0.00,CLR,,0.02,WeatherDisplay:10.37,2013-11-01 07:15:00,
2013-11-01 07:20:00,48.7,43.5,29.59,WSW,246,23.0,23.0,82,0.00,CLR,,0.02,WeatherDisplay:10.37,2013-11-01 07:20:00,
2013-11-01 07:25:00,48.8,43.5,29.59,SW,236,26.5,26.5,82,0.00,CLR,,0.02,WeatherDisplay:10.37,2013-11-01 07:25:00,
2013-11-01 07:30:00,48.8,43.5,29.59,WSW,251,26.5,26.5,82,0.00,CLR,,0.02,WeatherDisplay:10.37,2013-11-01 07:30:00,
2013-11-01 07:35:00,48.8,43.5,29.59,WSW,249,28.8,28.8,82,0.00,CLR,,0.02,WeatherDisplay:10.37,2013-11-01 07:35:00,
2013-11-01 07:40:00,48.4,43.8,29.59,WSW,248,32.2,32.2,84,0.00,CLR,,0.02,WeatherDisplay:10.37,2013-11-01 07:40:00,
2013-11-01 07:45:00,48.0,43.7,29.60,WSW,244,27.6,27.6,85,0.00,CLR,,0.02,WeatherDisplay:10.37,2013-11-01 07:45:00,
2013-11-01 07:50:00,48.0,43.7,29.60,WSW,246,26.5,26.5,85,0.00,CLR,,0.02,WeatherDisplay:10.37,2013-11-01 07:50:00,
2013-11-01 07:55:00,48.1,43.8,29.60,WSW,244,25.3,25.3,85,0.00,CLR,,0.02,WeatherDisplay:10.37,2013-11-01 07:55:00,
2013-11-01 08:00:00,48.3,43.7,29.60,WSW,244,23.0,23.0,84,0.00,CLR,,0.02,WeatherDisplay:10.37,2013-11-01 08:00:00,
2013-11-01 08:05:00,48.4,43.8,29.60,WSW,253,20.0,20.0,84,0.00,CLR,,0.02,WeatherDisplay:10.37,2013-11-01 08:05:00,
2013-11-01 08:10:00,48.6,43.7,29.60,WSW,240,31.1,31.1,83,0.00,CLR,,0.02,WeatherDisplay:10.37,2013-11-01 08:10:00,
2013-11-01 08:15:00,48.8,43.5,29.60,WSW,245,25.0,25.0,82,0.00,CLR,,0.02,WeatherDisplay:10.37,2013-11-01 08:15:00,
2013-11-01 08:20:00,48.7,43.5,29.60,WSW,244,34.5,34.5,82,0.00,CLR,,0.02,WeatherDisplay:10.37,2013-11-01 08:20:00,
2013-11-01 08:25:00,48.3,43.4,29.61,WSW,249,26.5,26.5,83,0.00,CLR,,0.02,WeatherDisplay:10.37,2013-11-01 08:25:00,
2013-11-01 08:30:00,47.8,43.5,29.61,SW,233,23.0,23.0,85,0.00,CLR,,0.02,WeatherDisplay:10.37,2013-11-01 08:30:00,
2013-11-01 08:35:00,47.5,43.5,29.61,WSW,251,18.4,18.4,86,0.00,CLR,,0.02,WeatherDisplay:10.37,2013-11-01 08:35:00,
2013-11-01 08:40:00,47.1,43.7,29.61,WSW,253,13.8,13.8,88,0.00,CLR,,0.02,WeatherDisplay:10.37,2013-11-01 08:40:00,
2013-11-01 08:45:00,47.1,44.6,29.60,WSW,249,23.0,23.0,91,0.00,CLR,,0.02,WeatherDisplay:10.37,2013-11-01 08:45:00,
2013-11-01 08:50:00,47.3,44.8,29.60,West,260,23.0,23.0,91,0.00,CLR,,0.02,WeatherDisplay:10.37,2013-11-01 08:50:00,
2013-11-01 08:55:00,47.5,44.7,29.60,WSW,242,21.9,21.9,90,0.00,CLR,,0.02,WeatherDisplay:10.37,2013-11-01 08:55:00,
2013-11-01 09:00:00,47.5,44.7,29.60,WSW,251,16.1,16.1,90,0.00,CLR,,0.02,WeatherDisplay:10.37,2013-11-01 09:00:00,
2013-11-01 09:05:00,47.8,44.7,29.60,WSW,245,19.6,19.6,89,0.00,CLR,,0.02,WeatherDisplay:10.37,2013-11-01 09:05:00,
2013-11-01 09:10:00,48.3,44.9,29.60,WSW,256,20.0,20.0,88,0.00,CLR,,0.02,WeatherDisplay:10.37,2013-11-01 09:10:00,
2013-11-01 09:15:00,48.5,44.5,29.60,WSW,241,17.3,17.3,86,0.00,CLR,,0.02,WeatherDisplay:10.37,2013-11-01 09:15:00,
2013-11-01 09:20:00,48.5,44.5,29.60,WSW,253,21.9,21.9,86,0.00,CLR,,0.02,WeatherDisplay:10.37,2013-11-01 09:20:00,
2013-11-01 09:25:00,48.5,44.2,29.60,WSW,244,21.9,21.9,85,0.00,CLR,,0.02,WeatherDisplay:10.37,2013-11-01 09:25:00,
2013-11-01 09:30:00,48.7,44.4,29.60,SW,233,26.5,26.5,85,0.00,CLR,,0.02,WeatherDisplay:10.37,2013-11-01 09:30:00,
2013-11-01 09:35:00,49.0,44.1,29.60,SW,227,28.8,28.8,83,0.00,CLR,,0.02,WeatherDisplay:10.37,2013-11-01 09:35:00,
2013-11-01 09:40:00,49.1,44.2,29.60,WSW,241,26.5,26.5,83,0.00,CLR,,0.02,WeatherDisplay:10.37,2013-11-01 09:40:00,
2013-11-01 09:45:00,49.2,43.9,29.60,SW,228,28.8,28.8,82,0.00,CLR,,0.02,WeatherDisplay:10.37,2013-11-01 09:45:00,
2013-11-01 09:50:00,49.1,44.5,29.60,SW,229,21.9,21.9,84,0.00,CLR,,0.02,WeatherDisplay:10.37,2013-11-01 09:50:00,
2013-11-01 09:55:00,49.3,44.0,29.60,WSW,252,23.0,23.0,82,0.00,CLR,,0.02,WeatherDisplay:10.37,2013-11-01 09:55:00,
2013-11-01 10:00:00,49.3,44.0,29.60,WSW,241,20.7,20.7,82,0.00,CLR,,0.02,WeatherDisplay:10.37,2013-11-01 10:00:00,
2013-11-01 10:05:00,49.4,43.8,29.60,WSW,238,26.5,26.5,81,0.00,CLR,,0.02,WeatherDisplay:10.37,2013-11-01 10:05:00,
2013-11-01 10:10:00,49.3,44.0,29.60,WSW,237,20.7,20.7,82,0.00,CLR,,0.02,WeatherDisplay:10.37,2013-11-01 10:10:00,
2013-11-01 10:15:00,49.3,44.0,29.60,SW,232,21.9,21.9,82,0.00,CLR,,0.02,WeatherDisplay:10.37,2013-11-01 10:15:00,
2013-11-01 10:20:00,49.3,44.0,29.60,SW,227,20.7,20.7,82,0.00,CLR,,0.02,WeatherDisplay:10.37,2013-11-01 10:20:00,
2013-11-01 10:25:00,49.4,44.5,29.59,SW,226,21.9,21.9,83,0.00,CLR,,0.02,WeatherDisplay:10.37,2013-11-01 10:25:00,
2013-11-01 10:30:00,49.6,44.0,29.60,SW,223,19.0,19.0,81,0.00,CLR,,0.02,WeatherDisplay:10.37,2013-11-01 10:30:00,
2013-11-01 10:35:00,49.7,44.4,29.59,West,261,25.3,25.3,82,0.00,CLR,,0.02,WeatherDisplay:10.37,2013-11-01 10:35:00,
2013-11-01 10:40:00,49.9,44.3,29.59,WSW,242,24.2,24.2,81,0.00,CLR,,0.02,WeatherDisplay:10.37,2013-11-01 10:40:00,
2013-11-01 10:45:00,50.1,44.5,29.59,West,259,19.6,19.6,81,0.00,CLR,,0.02,WeatherDisplay:10.37,2013-11-01 10:45:00,
2013-11-01 10:50:00,50.1,44.2,29.59,WSW,242,25.3,25.3,80,0.00,CLR,,0.02,WeatherDisplay:10.37,2013-11-01 10:50:00,
2013-11-01 10:55:00,50.1,44.5,29.59,WSW,251,23.0,23.0,81,0.00,CLR,,0.02,WeatherDisplay:10.37,2013-11-01 10:55:00,
2013-11-01 11:00:00,50.1,44.8,29.59,WSW,250,26.5,26.5,82,0.00,CLR,,0.02,WeatherDisplay:10.37,2013-11-01 11:00:00,
2013-11-01 11:05:00,50.0,44.7,29.59,SW,234,24.2,24.2,82,0.00,CLR,,0.02,WeatherDisplay:10.37,2013-11-01 11:05:00,
2013-11-01 11:10:00,50.1,44.5,29.58,WSW,257,17.3,17.3,81,0.00,CLR,,0.02,WeatherDisplay:10.37,2013-11-01 11:10:00,
2013-11-01 11:15:00,50.3,45.0,29.58,WSW,250,19.6,19.6,82,0.00,CLR,,0.02,WeatherDisplay:10.37,2013-11-01 11:15:00,
2013-11-01 11:20:00,50.4,44.5,29.58,WSW,242,26.5,26.5,80,0.00,CLR,,0.02,WeatherDisplay:10.37,2013-11-01 11:20:00,
2013-11-01 11:25:00,50.4,44.5,29.58,WSW,242,26.5,26.5,80,0.00,CLR,,0.02,WeatherDisplay:10.37,2013-11-01 11:25:00,
2013-11-01 11:30:00,50.5,44.9,29.58,WSW,246,18.4,18.4,81,0.00,CLR,,0.02,WeatherDisplay:10.37,2013-11-01 11:30:00,
2013-11-01 11:35:00,50.6,45.0,29.58,WSW,252,25.3,25.3,81,0.00,CLR,,0.02,WeatherDisplay:10.37,2013-11-01 11:35:00,
2013-11-01 11:40:00,50.7,44.8,29.58,WNW,282,32.2,32.2,80,0.00,CLR,,0.02,WeatherDisplay:10.37,2013-11-01 11:40:00,
2013-11-01 11:45:00,50.6,44.3,29.58,WSW,238,26.5,26.5,79,0.00,CLR,,0.02,WeatherDisplay:10.37,2013-11-01 11:45:00,
2013-11-01 11:50:00,49.8,43.9,29.59,NW,311,32.2,32.2,80,0.00,CLR,,0.02,WeatherDisplay:10.37,2013-11-01 11:50:00,
2013-11-01 11:55:00,46.7,42.1,29.60,West,276,33.4,33.4,84,0.00,CLR,,0.02,WeatherDisplay:10.37,2013-11-01 11:55:00,
2013-11-01 12:00:00,44.9,42.4,29.59,WSW,242,25.3,25.3,91,0.00,CLR,,0.02,WeatherDisplay:10.37,2013-11-01 12:00:00,
2013-11-01 12:05:00,44.4,42.8,29.60,WNW,286,26.5,26.5,94,0.00,CLR,,0.02,WeatherDisplay:10.37,2013-11-01 12:05:00,
2013-11-01 12:10:00,44.4,42.8,29.59,West,267,20.7,20.7,94,0.00,CLR,,0.02,WeatherDisplay:10.37,2013-11-01 12:10:00,
2013-11-01 12:15:00,44.5,42.9,29.59,West,281,20.7,20.7,94,0.00,CLR,,0.02,WeatherDisplay:10.37,2013-11-01 12:15:00,
2013-11-01 12:20:00,44.6,43.0,29.58,WNW,303,19.6,19.6,94,0.00,CLR,,0.02,WeatherDisplay:10.37,2013-11-01 12:20:00,
2013-11-01 12:25:00,45.1,43.5,29.58,West,269,16.1,16.1,94,0.00,CLR,,0.02,WeatherDisplay:10.37,2013-11-01 12:25:00,
2013-11-01 12:30:00,45.4,43.8,29.58,WSW,251,9.2,9.2,94,0.00,CLR,,0.02,WeatherDisplay:10.37,2013-11-01 12:30:00,
2013-11-01 12:35:00,45.9,44.3,29.58,WSW,257,18.4,18.4,94,0.00,CLR,,0.02,WeatherDisplay:10.37,2013-11-01 12:35:00,
2013-11-01 12:40:00,46.2,44.6,29.58,West,273,11.5,11.5,94,0.00,CLR,,0.02,WeatherDisplay:10.37,2013-11-01 12:40:00,
2013-11-01 12:45:00,46.4,44.8,29.58,West,273,5.8,5.8,94,0.00,CLR,,0.02,WeatherDisplay:10.37,2013-11-01 12:45:00,
2013-11-01 12:50:00,46.7,45.1,29.58,West,270,2.3,2.3,94,0.00,CLR,,0.02,WeatherDisplay:10.37,2013-11-01 12:50:00,
2013-11-01 12:55:00,46.9,45.3,29.58,SW,224,13.8,13.8,94,0.00,CLR,,0.02,WeatherDisplay:10.37,2013-11-01 12:55:00,
2013-11-01 13:00:00,47.5,45.9,29.58,WSW,240,13.8,13.8,94,0.00,CLR,,0.02,WeatherDisplay:10.37,2013-11-01 13:00:00,
2013-11-01 13:05:00,48.0,46.4,29.57,West,260,12.7,12.7,94,0.00,CLR,,0.02,WeatherDisplay:10.37,2013-11-01 13:05:00,
2013-11-01 13:10:00,48.3,46.4,29.57,WSW,246,19.6,19.6,93,0.00,CLR,,0.02,WeatherDisplay:10.37,2013-11-01 13:10:00,
2013-11-01 13:15:00,48.6,46.7,29.57,West,265,24.2,24.2,93,0.00,CLR,,0.02,WeatherDisplay:10.37,2013-11-01 13:15:00,
2013-11-01 13:20:00,48.9,46.1,29.57,West,268,26.5,26.5,90,0.00,CLR,,0.02,WeatherDisplay:10.37,2013-11-01 13:20:00,
2013-11-01 13:25:00,49.4,45.1,29.57,WSW,248,24.2,24.2,85,0.00,CLR,,0.02,WeatherDisplay:10.37,2013-11-01 13:25:00,
2013-11-01 13:30:00,49.5,44.9,29.57,WSW,251,19.6,19.6,84,0.00,CLR,,0.02,WeatherDisplay:10.37,2013-11-01 13:30:00,
2013-11-01 13:35:00,49.4,45.1,29.57,WSW,257,26.5,26.5,85,0.00,CLR,,0.02,WeatherDisplay:10.37,2013-11-01 13:35:00,
2013-11-01 13:40:00,49.3,45.3,29.57,SW,235,25.3,25.3,86,0.00,CLR,,0.02,WeatherDisplay:10.37,2013-11-01 13:40:00,
2013-11-01 13:45:00,49.5,45.2,29.57,WSW,245,26.5,26.5,85,0.00,CLR,,0.02,WeatherDisplay:10.37,2013-11-01 13:45:00,
2013-11-01 13:50:00,49.9,44.6,29.57,WSW,238,26.5,26.5,82,0.00,CLR,,0.02,WeatherDisplay:10.37,2013-11-01 13:50:00,
2013-11-01 13:55:00,50.1,44.2,29.57,WSW,255,19.6,19.6,80,0.00,CLR,,0.02,WeatherDisplay:10.37,2013-11-01 13:55:00,
2013-11-01 14:00:00,50.2,43.6,29.56,WSW,239,25.3,25.3,78,0.00,CLR,,0.02,WeatherDisplay:10.37,2013-11-01 14:00:00,
2013-11-01 14:05:00,50.3,43.7,29.56,SW,233,23.0,23.0,78,0.00,CLR,,0.02,WeatherDisplay:10.37,2013-11-01 14:05:00,
2013-11-01 14:10:00,50.1,43.8,29.57,WSW,249,25.3,25.3,79,0.00,CLR,,0.02,WeatherDisplay:10.37,2013-11-01 14:10:00,
2013-11-01 14:15:00,49.9,44.3,29.57,West,268,23.0,23.0,81,0.00,CLR,,0.02,WeatherDisplay:10.37,2013-11-01 14:15:00,
2013-11-01 14:20:00,49.5,44.2,29.56,West,265,31.0,31.0,82,0.00,CLR,,0.02,WeatherDisplay:10.37,2013-11-01 14:20:00,
2013-11-01 14:25:00,49.3,44.4,29.56,West,272,15.0,15.0,83,0.00,CLR,,0.02,WeatherDisplay:10.37,2013-11-01 14:25:00,
2013-11-01 14:30:00,49.3,44.0,29.57,West,263,15.0,15.0,82,0.00,CLR,,0.02,WeatherDisplay:10.37,2013-11-01 14:30:00,
2013-11-01 14:35:00,49.3,44.0,29.56,WSW,252,20.7,20.7,82,0.00,CLR,,0.02,WeatherDisplay:10.37,2013-11-01 14:35:00,
2013-11-01 14:40:00,49.0,44.4,29.56,WSW,249,24.2,24.2,84,0.00,CLR,,0.02,WeatherDisplay:10.37,2013-11-01 14:40:00,
2013-11-01 14:45:00,48.8,44.2,29.56,WSW,242,21.9,21.9,84,0.00,CLR,,0.02,WeatherDisplay:10.37,2013-11-01 14:45:00,
2013-11-01 14:50:00,48.8,44.2,29.56,West,260,11.5,11.5,84,0.00,CLR,,0.02,WeatherDisplay:10.37,2013-11-01 14:50:00,
2013-11-01 14:55:00,48.8,44.2,29.56,WSW,252,8.1,8.1,84,0.00,CLR,,0.02,WeatherDisplay:10.37,2013-11-01 14:55:00,
2013-11-01 15:00:00,48.9,44.0,29.56,West,264,10.4,10.4,83,0.00,CLR,,0.02,WeatherDisplay:10.37,2013-11-01 15:00:00,
2013-11-01 15:05:00,49.3,44.4,29.56,SW,226,8.1,8.1,83,0.00,CLR,,0.02,WeatherDisplay:10.37,2013-11-01 15:05:00,
2013-11-01 15:10:00,49.4,44.1,29.56,SW,234,5.0,5.6,82,0.00,CLR,,0.02,WeatherDisplay:10.37,2013-11-01 15:10:00,
2013-11-01 15:15:00,49.4,44.1,29.56,SW,236,9.2,9.2,82,0.00,CLR,,0.02,WeatherDisplay:10.37,2013-11-01 15:15:00,
2013-11-01 15:20:00,49.5,44.6,29.56,WSW,240,11.5,11.5,83,0.00,CLR,,0.02,WeatherDisplay:10.37,2013-11-01 15:20:00,
2013-11-01 15:25:00,49.4,44.5,29.56,SW,234,18.4,18.4,83,0.00,CLR,,0.02,WeatherDisplay:10.37,2013-11-01 15:25:00,
2013-11-01 15:30:00,49.2,44.6,29.56,WSW,251,17.0,17.0,84,0.00,CLR,,0.02,WeatherDisplay:10.37,2013-11-01 15:30:00,
2013-11-01 15:35:00,49.2,44.6,29.56,SW,230,10.4,10.4,84,0.00,CLR,,0.02,WeatherDisplay:10.37,2013-11-01 15:35:00,
2013-11-01 15:40:00,49.1,44.8,29.56,SW,233,11.5,11.5,85,0.00,CLR,,0.02,WeatherDisplay:10.37,2013-11-01 15:40:00,
2013-11-01 15:45:00,49.1,44.8,29.56,WSW,246,12.7,12.7,85,0.00,CLR,,0.02,WeatherDisplay:10.37,2013-11-01 15:45:00,
2013-11-01 15:50:00,49.1,44.8,29.56,WSW,251,11.5,11.5,85,0.00,CLR,,0.02,WeatherDisplay:10.37,2013-11-01 15:50:00,
2013-11-01 15:55:00,49.2,44.3,29.56,WSW,237,12.7,12.7,83,0.00,CLR,,0.02,WeatherDisplay:10.37,2013-11-01 15:55:00,
2013-11-01 16:00:00,49.2,44.3,29.56,WSW,254,16.1,16.1,83,0.00,CLR,,0.02,WeatherDisplay:10.37,2013-11-01 16:00:00,
2013-11-01 16:05:00,49.0,44.1,29.56,WSW,245,19.6,19.6,83,0.00,CLR,,0.02,WeatherDisplay:10.37,2013-11-01 16:05:00,
2013-11-01 16:10:00,48.6,44.3,29.57,West,263,13.8,13.8,85,0.00,CLR,,0.02,WeatherDisplay:10.37,2013-11-01 16:10:00,
2013-11-01 16:15:00,48.1,44.1,29.57,WSW,249,18.4,18.4,86,0.00,CLR,,0.02,WeatherDisplay:10.37,2013-11-01 16:15:00,
2013-11-01 16:20:00,48.2,43.9,29.57,WSW,255,15.0,15.0,85,0.00,CLR,,0.02,WeatherDisplay:10.37,2013-11-01 16:20:00,
2013-11-01 16:25:00,48.2,44.2,29.57,WSW,252,10.4,10.4,86,0.00,CLR,,0.02,WeatherDisplay:10.37,2013-11-01 16:25:00,
2013-11-01 16:30:00,48.3,44.6,29.57,SW,236,11.0,11.0,87,0.00,CLR,,0.02,WeatherDisplay:10.37,2013-11-01 16:30:00,
2013-11-01 16:35:00,48.3,44.6,29.57,SW,232,9.2,9.2,87,0.00,CLR,,0.02,WeatherDisplay:10.37,2013-11-01 16:35:00,
2013-11-01 16:40:00,48.4,44.4,29.57,WSW,247,8.1,8.1,86,0.00,CLR,,0.02,WeatherDisplay:10.37,2013-11-01 16:40:00,
2013-11-01 16:45:00,48.3,44.3,29.56,SSW,213,5.0,5.0,86,0.00,CLR,,0.02,WeatherDisplay:10.37,2013-11-01 16:45:00,
2013-11-01 16:50:00,48.3,44.6,29.57,WSW,241,6.9,6.9,87,0.00,CLR,,0.02,WeatherDisplay:10.37,2013-11-01 16:50:00,
2013-11-01 16:55:00,48.2,44.5,29.56,SW,217,3.5,3.5,87,0.00,CLR,,0.02,WeatherDisplay:10.37,2013-11-01 16:55:00,
2013-11-01 17:00:00,48.2,44.2,29.56,SSW,203,5.0,5.0,86,0.00,CLR,,0.02,WeatherDisplay:10.37,2013-11-01 17:00:00,
2013-11-01 17:05:00,48.1,43.8,29.57,WSW,242,5.8,5.8,85,0.00,CLR,,0.02,WeatherDisplay:10.37,2013-11-01 17:05:00,
2013-11-01 17:10:00,48.0,43.7,29.57,WSW,242,4.6,4.6,85,0.00,CLR,,0.02,WeatherDisplay:10.37,2013-11-01 17:10:00,
2013-11-01 17:15:00,48.0,43.7,29.57,SSW,199,4.0,4.0,85,0.00,CLR,,0.02,WeatherDisplay:10.37,2013-11-01 17:15:00,
2013-11-01 17:20:00,48.0,43.7,29.57,WSW,246,4.6,4.6,85,0.00,CLR,,0.02,WeatherDisplay:10.37,2013-11-01 17:20:00,
2013-11-01 17:25:00,47.9,43.6,29.57,WSW,238,8.1,8.1,85,0.00,CLR,,0.02,WeatherDisplay:10.37,2013-11-01 17:25:00,
2013-11-01 17:30:00,47.9,43.3,29.57,WSW,245,5.8,5.8,84,0.00,CLR,,0.02,WeatherDisplay:10.37,2013-11-01 17:30:00,
2013-11-01 17:35:00,47.9,43.6,29.57,WSW,256,8.0,8.0,85,0.00,CLR,,0.02,WeatherDisplay:10.37,2013-11-01 17:35:00,
2013-11-01 17:40:00,47.9,43.6,29.57,West,263,5.8,5.8,85,0.00,CLR,,0.02,WeatherDisplay:10.37,2013-11-01 17:40:00,
2013-11-01 17:45:00,48.1,43.8,29.57,WSW,255,6.9,6.9,85,0.00,CLR,,0.02,WeatherDisplay:10.37,2013-11-01 17:45:00,
2013-11-01 17:50:00,48.3,43.7,29.57,WSW,256,8.1,8.1,84,0.00,CLR,,0.02,WeatherDisplay:10.37,2013-11-01 17:50:00,
2013-11-01 17:55:00,48.3,43.7,29.57,WSW,257,3.5,3.5,84,0.00,CLR,,0.02,WeatherDisplay:10.37,2013-11-01 17:55:00,
2013-11-01 18:00:00,48.3,44.0,29.57,WSW,249,4.6,4.6,85,0.00,CLR,,0.02,WeatherDisplay:10.37,2013-11-01 18:00:00,
2013-11-01 18:05:00,48.2,43.9,29.57,West,260,3.5,3.5,85,0.00,CLR,,0.02,WeatherDisplay:10.37,2013-11-01 18:05:00,
2013-11-01 18:10:00,48.1,44.1,29.57,West,264,3.5,3.5,86,0.00,CLR,,0.02,WeatherDisplay:10.37,2013-11-01 18:10:00,
2013-11-01 18:15:00,47.9,43.9,29.58,WNW,288,3.5,3.5,86,0.00,CLR,,0.02,WeatherDisplay:10.37,2013-11-01 18:15:00,
2013-11-01 18:20:00,47.6,43.9,29.58,WNW,290,3.5,3.5,87,0.00,CLR,,0.02,WeatherDisplay:10.37,2013-11-01 18:20:00,
2013-11-01 18:25:00,47.3,43.6,29.58,West,265,5.8,5.8,87,0.00,CLR,,0.02,WeatherDisplay:10.37,2013-11-01 18:25:00,
2013-11-01 18:30:00,47.2,43.2,29.58,West,268,5.0,5.0,86,0.00,CLR,,0.02,WeatherDisplay:10.37,2013-11-01 18:30:00,
2013-11-01 18:35:00,47.2,43.2,29.58,West,276,4.6,4.6,86,0.00,CLR,,0.02,WeatherDisplay:10.37,2013-11-01 18:35:00,
2013-11-01 18:40:00,47.0,43.0,29.57,West,276,5.0,5.0,86,0.00,CLR,,0.02,WeatherDisplay:10.37,2013-11-01 18:40:00,
2013-11-01 18:45:00,46.9,42.9,29.57,WNW,288,5.8,5.8,86,0.00,CLR,,0.02,WeatherDisplay:10.37,2013-11-01 18:45:00,
2013-11-01 18:50:00,46.7,42.7,29.57,WNW,303,3.5,3.5,86,0.00,CLR,,0.02,WeatherDisplay:10.37,2013-11-01 18:50:00,
2013-11-01 18:55:00,46.4,42.7,29.57,WNW,300,2.3,2.3,87,0.00,CLR,,0.02,WeatherDisplay:10.37,2013-11-01 18:55:00,
2013-11-01 19:00:00,46.2,42.8,29.57,WNW,296,3.5,3.5,88,0.00,CLR,,0.02,WeatherDisplay:10.37,2013-11-01 19:00:00,
2013-11-01 19:05:00,46.0,42.6,29.57,WNW,297,2.3,2.3,88,0.00,CLR,,0.02,WeatherDisplay:10.37,2013-11-01 19:05:00,
2013-11-01 19:10:00,45.8,42.4,29.57,WNW,298,1.2,1.2,88,0.00,CLR,,0.02,WeatherDisplay:10.37,2013-11-01 19:10:00,
2013-11-01 19:15:00,45.1,41.8,29.58,NW,323,2.3,2.3,88,0.00,CLR,,0.02,WeatherDisplay:10.37,2013-11-01 19:15:00,
2013-11-01 19:20:00,44.7,41.7,29.58,NW,324,1.2,1.2,89,0.00,CLR,,0.02,WeatherDisplay:10.37,2013-11-01 19:20:00,
2013-11-01 19:25:00,44.2,41.5,29.58,NW,323,1.2,1.2,90,0.00,CLR,,0.02,WeatherDisplay:10.37,2013-11-01 19:25:00,
2013-11-01 19:30:00,43.8,41.3,29.58,NW,323,1.2,1.2,91,0.00,CLR,,0.02,WeatherDisplay:10.37,2013-11-01 19:30:00,
2013-11-01 19:35:00,43.8,41.6,29.58,NW,321,1.2,1.2,92,0.00,CLR,,0.02,WeatherDisplay:10.37,2013-11-01 19:35:00,
2013-11-01 19:40:00,44.5,42.6,29.58,WNW,298,2.3,2.3,93,0.00,CLR,,0.02,WeatherDisplay:10.37,2013-11-01 19:40:00,
2013-11-01 19:45:00,44.9,42.7,29.58,West,278,3.5,3.5,92,0.00,CLR,,0.02,WeatherDisplay:10.37,2013-11-01 19:45:00,
2013-11-01 19:50:00,45.2,42.7,29.58,WSW,258,2.3,2.3,91,0.00,CLR,,0.02,WeatherDisplay:10.37,2013-11-01 19:50:00,
2013-11-01 19:55:00,45.9,43.4,29.58,WNW,296,2.3,2.3,91,0.00,CLR,,0.02,WeatherDisplay:10.37,2013-11-01 19:55:00,
2013-11-01 20:00:00,45.6,42.8,29.58,NW,305,1.2,1.2,90,0.00,CLR,,0.02,WeatherDisplay:10.37,2013-11-01 20:00:00,
2013-11-01 20:05:00,45.5,42.7,29.58,NW,315,2.3,2.3,90,0.00,CLR,,0.02,WeatherDisplay:10.37,2013-11-01 20:05:00,
2013-11-01 20:10:00,45.3,42.2,29.58,WNW,303,2.3,2.3,89,0.00,CLR,,0.02,WeatherDisplay:10.37,2013-11-01 20:10:00,
2013-11-01 20:15:00,44.9,41.9,29.58,NW,306,3.5,3.5,89,0.01,RA,,0.03,WeatherDisplay:10.37,2013-11-01 20:15:00,
2013-11-01 20:20:00,45.1,42.3,29.58,NW,307,4.6,4.6,90,0.01,RA,,0.03,WeatherDisplay:10.37,2013-11-01 20:20:00,
2013-11-01 20:25:00,45.0,42.2,29.58,NW,307,6.0,6.0,90,0.01,CLR,,0.03,WeatherDisplay:10.37,2013-11-01 20:25:00,
2013-11-01 20:30:00,45.0,42.2,29.58,NW,306,7.0,7.0,90,0.01,CLR,,0.03,WeatherDisplay:10.37,2013-11-01 20:30:00,
2013-11-01 20:35:00,45.0,42.2,29.57,NW,311,8.1,8.1,90,0.01,CLR,,0.03,WeatherDisplay:10.37,2013-11-01 20:35:00,
2013-11-01 20:40:00,45.0,42.0,29.57,NW,306,6.9,6.9,89,0.01,CLR,,0.03,WeatherDisplay:10.37,2013-11-01 20:40:00,
2013-11-01 20:45:00,45.0,42.0,29.57,NW,310,5.0,5.0,89,0.01,CLR,,0.03,WeatherDisplay:10.37,2013-11-01 20:45:00,
2013-11-01 20:50:00,44.9,42.1,29.57,WNW,298,4.6,4.6,90,0.01,CLR,,0.03,WeatherDisplay:10.37,2013-11-01 20:50:00,
2013-11-01 20:55:00,44.9,42.1,29.58,WNW,301,3.5,3.5,90,0.01,CLR,,0.03,WeatherDisplay:10.37,2013-11-01 20:55:00,
2013-11-01 21:00:00,44.7,41.9,29.58,WNW,300,1.2,1.2,90,0.01,CLR,,0.03,WeatherDisplay:10.37,2013-11-01 21:00:00,
2013-11-01 21:05:00,43.9,41.2,29.58,NW,320,2.3,2.3,90,0.01,CLR,,0.03,WeatherDisplay:10.37,2013-11-01 21:05:00,
2013-11-01 21:10:00,43.4,40.9,29.58,NW,320,0.0,0.0,91,0.01,CLR,,0.03,WeatherDisplay:10.37,2013-11-01 21:10:00,
2013-11-01 21:15:00,43.3,41.1,29.58,NW,320,0.0,0.0,92,0.00,CLR,,0.03,WeatherDisplay:10.37,2013-11-01 21:15:00,
2013-11-01 21:20:00,43.8,41.9,29.58,NW,316,1.2,1.2,93,0.00,CLR,,0.03,WeatherDisplay:10.37,2013-11-01 21:20:00,
2013-11-01 21:25:00,44.2,42.3,29.57,NW,312,3.5,3.5,93,0.00,CLR,,0.03,WeatherDisplay:10.37,2013-11-01 21:25:00,
2013-11-01 21:30:00,44.5,42.3,29.57,NW,315,2.3,2.3,92,0.00,CLR,,0.03,WeatherDisplay:10.37,2013-11-01 21:30:00,
2013-11-01 21:35:00,44.7,42.2,29.57,NW,307,3.5,3.5,91,0.00,CLR,,0.03,WeatherDisplay:10.37,2013-11-01 21:35:00,
2013-11-01 21:40:00,44.6,42.1,29.58,NNW,346,1.2,1.2,91,0.00,CLR,,0.03,WeatherDisplay:10.37,2013-11-01 21:40:00,
2013-11-01 21:45:00,44.6,42.4,29.58,NNE,28,1.2,1.2,92,0.00,CLR,,0.03,WeatherDisplay:10.37,2013-11-01 21:45:00,
2013-11-01 21:50:00,44.4,42.2,29.58,NW,309,1.2,1.2,92,0.00,CLR,,0.03,WeatherDisplay:10.37,2013-11-01 21:50:00,
2013-11-01 21:55:00,43.8,41.6,29.58,NNW,331,2.3,2.3,92,0.00,CLR,,0.03,WeatherDisplay:10.37,2013-11-01 21:55:00,
2013-11-01 22:00:00,43.5,41.3,29.57,NNW,334,1.2,1.2,92,0.00,CLR,,0.03,WeatherDisplay:10.37,2013-11-01 22:00:00,
2013-11-01 22:05:00,43.3,41.4,29.57,NW,315,1.2,1.2,93,0.00,CLR,,0.03,WeatherDisplay:10.37,2013-11-01 22:05:00,
2013-11-01 22:10:00,43.2,41.3,29.57,NW,315,1.2,1.2,93,0.00,CLR,,0.03,WeatherDisplay:10.37,2013-11-01 22:10:00,
2013-11-01 22:15:00,43.1,41.2,29.57,NW,315,0.0,0.0,93,0.00,CLR,,0.03,WeatherDisplay:10.37,2013-11-01 22:15:00,
2013-11-01 22:20:00,43.0,41.1,29.57,NW,315,0.0,0.1,93,0.00,CLR,,0.03,WeatherDisplay:10.37,2013-11-01 22:20:00,
2013-11-01 22:25:00,42.8,40.9,29.56,NW,317,1.2,1.2,93,0.00,CLR,,0.03,WeatherDisplay:10.37,2013-11-01 22:25:00,
2013-11-01 22:30:00,42.7,40.8,29.56,NW,317,1.2,0.0,93,0.00,CLR,,0.03,WeatherDisplay:10.37,2013-11-01 22:30:00,
2013-11-01 22:35:00,42.6,40.7,29.56,NW,317,0.0,0.0,93,0.00,CLR,,0.03,WeatherDisplay:10.37,2013-11-01 22:35:00,
2013-11-01 22:40:00,42.4,40.5,29.56,NW,317,0.0,0.0,93,0.00,CLR,,0.03,WeatherDisplay:10.37,2013-11-01 22:40:00,
2013-11-01 22:45:00,42.4,40.8,29.57,NW,317,1.2,0.0,94,0.00,CLR,,0.03,WeatherDisplay:10.37,2013-11-01 22:45:00,
2013-11-01 22:50:00,42.4,40.8,29.57,WNW,303,1.2,1.2,94,0.00,CLR,,0.03,WeatherDisplay:10.37,2013-11-01 22:50:00,
2013-11-01 22:55:00,43.5,42.4,29.57,WSW,244,3.5,3.5,96,0.00,CLR,,0.03,WeatherDisplay:10.37,2013-11-01 22:55:00,
2013-11-01 23:00:00,43.9,42.6,29.56,WSW,249,4.6,4.6,95,0.00,CLR,,0.03,WeatherDisplay:10.37,2013-11-01 23:00:00,
2013-11-01 23:05:00,44.1,42.8,29.56,WSW,242,6.9,6.9,95,0.00,CLR,,0.03,WeatherDisplay:10.37,2013-11-01 23:05:00,
2013-11-01 23:10:00,44.7,43.4,29.56,West,259,9.2,9.2,95,0.00,CLR,,0.03,WeatherDisplay:10.37,2013-11-01 23:10:00,
2013-11-01 23:15:00,45.5,43.9,29.56,WSW,253,10.4,10.4,94,0.00,CLR,,0.03,WeatherDisplay:10.37,2013-11-01 23:15:00,
2013-11-01 23:20:00,45.7,43.5,29.56,West,261,13.8,13.8,92,0.00,CLR,,0.03,WeatherDisplay:10.37,2013-11-01 23:20:00,
2013-11-01 23:25:00,46.1,43.6,29.56,West,259,13.8,13.8,91,0.00,CLR,,0.03,WeatherDisplay:10.37,2013-11-01 23:25:00,
2013-11-01 23:30:00,46.1,43.3,29.56,WSW,257,10.4,10.4,90,0.00,CLR,,0.03,WeatherDisplay:10.37,2013-11-01 23:30:00,
2013-11-01 23:35:00,45.8,43.3,29.56,West,263,6.9,6.9,91,0.00,CLR,,0.03,WeatherDisplay:10.37,2013-11-01 23:35:00,
2013-11-01 23:40:00,45.2,42.4,29.56,NNW,347,1.2,1.2,90,0.00,CLR,,0.03,WeatherDisplay:10.37,2013-11-01 23:40:00,
2013-11-01 23:45:00,44.1,41.4,29.56,North,355,1.2,1.2,90,0.00,CLR,,0.03,WeatherDisplay:10.37,2013-11-01 23:45:00,
2013-11-01 23:50:00,43.3,40.8,29.55,North,354,0.0,0.0,91,0.00,CLR,,0.03,WeatherDisplay:10.37,2013-11-01 23:50:00,
2013-11-01 23:55:00,42.9,40.7,29.55,North,353,0.0,0.0,92,0.00,CLR,,0.03,WeatherDisplay:10.37,2013-11-01 23:55:00,